Tracking 30922 objects as of 2-Jul-2025
HD Live streaming from Space Station
objects crossing your sky now

STARLINK-1640

Track STARLINK-1640 now!
10-day predictions
STARLINK-1640 is classified as:


NORAD ID: 46173
Int'l Code: 2020-057BJ
Perigee: 553.4 km
Apogee: 555.2 km
Inclination: 53.1 °
Period: 95.6 minutes
Semi major axis: 6925 km
RCS: Unknown
Launch date: August 18, 2020
Source: United States (US)
Launch site: AIR FORCE EASTERN TEST RANGE (AFETR)
Your satellite tracking list
Your tracking list is empty




NASA's NSSDC Master Catalog

Two Line Element Set (TLE):
1 46173U 20057BJ  25182.84267794  .00001667  00000-0  13078-3 0  9992
2 46173  53.0565   2.7149 0001300  84.9488 275.1649 15.06406325268917
Source of the keplerian elements: AFSPC